User: anonymous   Login
Location: Unspecified
(0.0000°N, 0.0000°E)
Time: 14:14:19
(UTC+00:00)
Language:

Cosmos 1666 - Orbit

View from above orbital plane
View from above orbital plane
View from above satellite
View from above satellite

Ground track
Ground track

The orbit data is extracted from the following two-line orbital elements,

1 15889U 85058A   18020.88951771 +.00000809 +00000-0 +38076-4 0  9999
2 15889 082.4897 139.5063 0017934 028.9701 110.4168 15.17948180774899
Epoch (UTC): 20 January 2018 21:20:54
Eccentricity: 0.0017934
inclination: 82.4897°
perigee height: 499 km
apogee height: 524 km
right ascension of ascending node: 139.5063°
argument of perigee: 28.9701°
revolutions per day: 15.17948180
mean anomaly at epoch: 110.4168°
orbit number at epoch: 77489

The dashed part of the orbit path shows where the satellite is in the earth's shadow,  

DLR